Regional Weather Roundup
Issued by NWS Kansas City/Pleasant Hill, MO

Home | Current Version | Previous Version | Graphics & Text | Print | Product List | Glossary Off
Versions: 1 2 3 4 5 6 7 8 9 10 11 12 13 14 15 16 17 18 19 20 21 22 23 24 25 26 27 28 29 30 31 32 33 34 35 36 37 38 39 40 41 42 43 44 45 46 47 48 49 50

407
ASUS43 KEAX 241410
RWREAX

WEATHER ROUNDUP FOR EASTERN KANSAS AND NORTHWEST MISSOURI
NATIONAL WEATHER SERVICE KANSAS CITY/PLEASANT HILL MO
900 AM CDT MON JUL 24 2017

KSZ040-057-103>105-MOZ028-029-037-043-241500-
...KANSAS CITY METROPOLITAN AREA...

CITY           SKY/WX    TMP DP  RH WIND       PRES   REMARKS
K.C. INTL      PTSUNNY   74  65  73 E8        30.03R
K.C. DOWNTOWN  CLOUDY    76  66  71 E8        30.01R
LEES SUMMIT    PTSUNNY   75  66  73 NE9       30.03R
OLATHE - IXD   PTSUNNY   76  65  68 E7        30.03R
OLATHE - OJC   MOSUNNY   74  66  76 E8        30.02R
LAWRENCE       CLOUDY    76  67  73 E7        30.02R

$$

MOZ001>008-011>017-020>025-030>033-038>040-044>046-053-054-241500-
...NORTHERN AND CENTRAL MISSOURI...

CITY           SKY/WX    TMP DP  RH WIND       PRES   REMARKS
ST. JOSEPH     SUNNY     74  65  73 E6        30.03R
MOSBY          CLOUDY    73  63  68 E5        30.03R
WHITEMAN AFB   MOSUNNY   75  69  81 NE7       30.00R
CLINTON        MOSUNNY   75  68  78 E7        30.00R
SEDALIA        MOSUNNY   77  70  79 E8        30.02R
WARSAW         NOT AVBL
CHILLICOTHE      N/A     74  66  76 VRB3      30.04R
KIRKSVILLE     SUNNY     72  64  76 VRB5      30.04R

$$

MOZ041-047>049-056>058-063>065-088>090-097-241500-
...EASTERN AND SOUTHERN MISSOURI...

CITY           SKY/WX    TMP DP  RH WIND       PRES   REMARKS
ST. LOUIS INTL SUNNY     79  67  66 N6        29.98R
SPIRIT OF STL  MOSUNNY   79  67  66 N6        29.97R
COLUMBIA       PTSUNNY   76  66  71 NE7       30.01R
JEFFERSON CITY SUNNY     78  67  68 NE7       29.99R
ROLLA          SUNNY     76  67  73 NE8       29.99R
OSAGE BEACH    SUNNY     78  69  73 NE8       30.00R
SPRINGFIELD    SUNNY     80  72  76 N7        30.00R
BRANSON        MOSUNNY   79  72  78 CALM      30.01R
JOPLIN         SUNNY     80  73  79 CALM      30.00R
WEST PLAINS    SUNNY     83  67  58 E3        30.00R

$$

IAZ060-094-KSZ022-034>040-054-083-096-NEZ052-066-093-241500-
...KANSAS...SOUTHEAST NEBRASKA AND IOWA...

CITY           SKY/WX    TMP DP  RH WIND       PRES   REMARKS
TOPEKA         SUNNY     76  68  76 E8        30.02R
MANHATTAN      SUNNY     77  67  71 E8        30.01R
EMPORIA        SUNNY     77  70  79 NE7       30.01R
CHANUTE        SUNNY     82  73  74 N6        29.99R
WICHITA        SUNNY     81  70  69 CALM      29.99R
OMAHA          MOSUNNY   72  61  68 E6        30.04S
LINCOLN        SUNNY     72  62  71 SE8       30.05R
FALLS CITY     SUNNY     72  65  78 E5        30.03R
LAMONI         SUNNY     71  63  75 E7        30.05R
DES MOINES     MOSUNNY   71  61  70 NE3       30.04R

$$





USA.gov is the U.S. government's official web portal to all federal, state and local government web resources and services.